Change the Weather History Date:

Wednesday, August 7, 2013

  Actual Average Record
Temperature  
Mean Temperature 68 °F -  
Max Temperature 77 °F 77 °F 91 °F (1989)
Min Temperature 60 °F 53 °F 43 °F (1975)
Cooling Degree Days 4    
Growing Degree Days 18 (Base 50)    
Moisture  
Dew Point 61 °F    
Average Humidity 79    
Maximum Humidity 94    
Minimum Humidity 69    
Precipitation  
Precipitation 0.00 in - - ()
Sea Level Pressure  
Sea Level Pressure 30.00 in    
Wind  
Wind Speed 10 mph (South)    
Max Wind Speed 17 mph    
Max Gust Speed 23 mph    
Visibility 10 miles    
Events      
Averages and records for this station are not official NWS values.
T = Trace of Precipitation, MM = Missing Value Source: NWS Daily Summary

Daily Weather History Graph

Daily Weather History Graph

Search for Another Location

Airport or City:

Trip Planner

Search our weather history database for the weather conditions in past years. The results will help you decide how hot, cold, wet, or windy it might be!

Date:

Astronomy

Aug. 07, 2013 Rise Set
Actual Time 6:16 AM EDT 8:28 PM EDT
Civil Twilight 5:45 AM EDT 8:59 PM EDT
Nautical Twilight 5:07 AM EDT 9:37 PM EDT
Astronomical Twilight 4:25 AM EDT 10:18 PM EDT
Moon 7:05 AM EDT (8/7) 8:32 PM EDT (8/7)
Length of Visible Light 15h 13m
Length of Day
14h 11m
New Moon, 1% of the Moon is Illuminated
Aug 7
New Moon
Aug 14
First Quarter
Aug 20
Full
Aug 28
Last Quarter
Sep 5
New

Hourly Weather History & Observations

Time (EDT) Temp. Dew Point Humidity Pressure Visibility Wind Dir Wind Speed Gust Speed Precip Events Conditions
12:15 AM 64.4 °F 57.2 °F 77% 30.02 in 10.0 mi South 11.5 mph - N/A   Overcast
12:35 AM 64.4 °F 57.2 °F 77% 30.02 in 10.0 mi SSE 11.5 mph - N/A   Scattered Clouds
12:55 AM 64.4 °F 57.2 °F 77% 30.03 in 10.0 mi South 8.1 mph - N/A   Clear
1:15 AM 62.6 °F 57.2 °F 82% 30.03 in 10.0 mi SSE 8.1 mph - N/A   Clear
1:35 AM 62.6 °F 57.2 °F 82% 30.03 in 10.0 mi South 8.1 mph - N/A   Partly Cloudy
1:55 AM 62.6 °F 57.2 °F 82% 30.03 in 10.0 mi South 8.1 mph - N/A   Scattered Clouds
2:15 AM 62.6 °F 57.2 °F 82% 30.03 in 10.0 mi South 8.1 mph - N/A   Scattered Clouds
2:35 AM 62.6 °F 57.2 °F 82% 30.03 in 10.0 mi SSE 11.5 mph - N/A   Clear
2:55 AM 62.6 °F 57.2 °F 82% 30.03 in 10.0 mi South 8.1 mph - N/A   Clear
3:15 AM 62.6 °F 57.2 °F 82% 30.03 in 10.0 mi South 9.2 mph - N/A   Clear
3:35 AM 62.6 °F 57.2 °F 82% 30.03 in 10.0 mi South 8.1 mph - N/A   Clear
3:55 AM 60.8 °F 57.2 °F 88% 30.03 in 10.0 mi South 8.1 mph - N/A   Scattered Clouds
4:15 AM 60.8 °F 57.2 °F 88% 30.03 in 10.0 mi South 9.2 mph - N/A   Mostly Cloudy
4:35 AM 60.8 °F 57.2 °F 88% 30.03 in 10.0 mi South 8.1 mph - N/A   Mostly Cloudy
4:55 AM 60.8 °F 57.2 °F 88% 30.03 in 10.0 mi South 6.9 mph - N/A   Mostly Cloudy
5:15 AM 60.8 °F 57.2 °F 88% 30.02 in 10.0 mi South 6.9 mph - N/A   Overcast
5:35 AM 60.8 °F 57.2 °F 88% 30.02 in 8.0 mi South 8.1 mph - N/A   Overcast
5:55 AM 60.8 °F 57.2 °F 88% 30.03 in 8.0 mi South 8.1 mph - N/A   Overcast
6:15 AM 60.8 °F 57.2 °F 88% 30.02 in 6.0 mi SSE 8.1 mph - N/A   Overcast
6:35 AM 60.8 °F 57.2 °F 88% 30.01 in 5.0 mi South 8.1 mph - N/A   Overcast
6:55 AM 60.8 °F 57.2 °F 88% 30.01 in 5.0 mi South 10.4 mph - N/A   Overcast
7:15 AM 62.6 °F 59.0 °F 88% 30.01 in 6.0 mi SSE 6.9 mph - N/A   Overcast
7:35 AM 62.6 °F 59.0 °F 88% 30.03 in 7.0 mi South 8.1 mph - N/A   Overcast
7:55 AM 62.6 °F 59.0 °F 88% 30.03 in 7.0 mi South 9.2 mph - N/A   Overcast
8:15 AM 62.6 °F 60.8 °F 94% 30.03 in 7.0 mi South 9.2 mph - N/A   Overcast
8:35 AM 64.4 °F 60.8 °F 88% 30.02 in 8.0 mi SSE 9.2 mph - N/A   Overcast
8:55 AM 64.4 °F 60.8 °F 88% 30.03 in 8.0 mi South 8.1 mph - N/A   Overcast
9:15 AM 66.2 °F 60.8 °F 83% 30.03 in 9.0 mi South 9.2 mph - N/A   Overcast
9:35 AM 66.2 °F 62.6 °F 88% 30.02 in 10.0 mi South 12.7 mph - N/A   Mostly Cloudy
9:55 AM 69.8 °F 62.6 °F 78% 30.01 in 10.0 mi South 12.7 mph 17.3 mph N/A   Scattered Clouds
10:15 AM 69.8 °F 62.6 °F 78% 30.01 in 10.0 mi South 9.2 mph - N/A   Mostly Cloudy
10:35 AM 69.8 °F 62.6 °F 78% 30.01 in 10.0 mi South 9.2 mph 17.3 mph N/A   Scattered Clouds
10:55 AM 71.6 °F 62.6 °F 73% 30.01 in 10.0 mi South 9.2 mph 16.1 mph N/A   Scattered Clouds
11:15 AM 71.6 °F 62.6 °F 73% 30.01 in 10.0 mi South 12.7 mph - N/A   Partly Cloudy
11:35 AM 73.4 °F 62.6 °F 69% 30.00 in 10.0 mi SSE 11.5 mph - N/A   Clear
11:55 AM 73.4 °F 62.6 °F 69% 30.00 in 10.0 mi South 10.4 mph - N/A   Scattered Clouds
12:15 PM 73.4 °F 62.6 °F 69% 30.00 in 10.0 mi SSW 9.2 mph 16.1 mph N/A   Mostly Cloudy
12:35 PM 73.4 °F 62.6 °F 69% 30.00 in 10.0 mi South 5.8 mph - N/A   Mostly Cloudy
12:55 PM 75.2 °F 64.4 °F 69% 29.99 in 10.0 mi South 10.4 mph 17.3 mph N/A   Mostly Cloudy
1:15 PM 75.2 °F 64.4 °F 69% 29.99 in 10.0 mi South 10.4 mph 19.6 mph N/A   Mostly Cloudy
1:35 PM 75.2 °F 64.4 °F 69% 29.99 in 10.0 mi SSW 9.2 mph 16.1 mph N/A   Mostly Cloudy
1:55 PM 75.2 °F 64.4 °F 69% 29.98 in 10.0 mi South 9.2 mph - N/A   Overcast
2:15 PM 75.2 °F 64.4 °F 69% 29.98 in 10.0 mi SSW 6.9 mph 17.3 mph N/A   Mostly Cloudy
2:35 PM 75.2 °F 64.4 °F 69% 29.98 in 10.0 mi SSW 10.4 mph 16.1 mph N/A   Mostly Cloudy
2:55 PM 75.2 °F 64.4 °F 69% 29.97 in 10.0 mi South 8.1 mph - N/A   Mostly Cloudy
3:15 PM 73.4 °F 64.4 °F 73% 29.97 in 10.0 mi South 10.4 mph 16.1 mph N/A   Mostly Cloudy
3:35 PM 75.2 °F 64.4 °F 69% 29.97 in 10.0 mi South 11.5 mph 16.1 mph N/A   Partly Cloudy
3:55 PM 75.2 °F 66.2 °F 73% 29.96 in 10.0 mi South 12.7 mph 17.3 mph N/A   Clear
4:15 PM 75.2 °F 64.4 °F 69% 29.96 in 10.0 mi SSW 12.7 mph 19.6 mph N/A   Mostly Cloudy
4:35 PM 77.0 °F 66.2 °F 69% 29.95 in 10.0 mi South 16.1 mph 23.0 mph N/A   Scattered Clouds
4:55 PM 75.2 °F 66.2 °F 73% 29.94 in 10.0 mi South 17.3 mph 23.0 mph N/A   Scattered Clouds
5:15 PM 75.2 °F 64.4 °F 69% 29.94 in 10.0 mi SSW 11.5 mph 19.6 mph N/A   Partly Cloudy
5:35 PM 73.4 °F 66.2 °F 78% 29.95 in 9.0 mi South 10.4 mph - N/A   Clear
5:55 PM 73.4 °F 64.4 °F 73% 29.94 in 10.0 mi SSW 12.7 mph 18.4 mph N/A   Clear
6:15 PM 73.4 °F 64.4 °F 73% 29.94 in 10.0 mi South 12.7 mph 17.3 mph N/A   Clear
6:35 PM 73.4 °F 62.6 °F 69% 29.94 in 10.0 mi South 11.5 mph - N/A   Clear
6:55 PM 71.6 °F 62.6 °F 73% 29.93 in 10.0 mi South 10.4 mph - N/A   Clear
7:15 PM 71.6 °F 62.6 °F 73% 29.94 in 10.0 mi SSW 9.2 mph - N/A   Clear
7:35 PM 71.6 °F 62.6 °F 73% 29.95 in 10.0 mi South 6.9 mph - N/A   Clear
7:55 PM 69.8 °F 62.6 °F 78% 29.96 in 10.0 mi South 6.9 mph - N/A   Clear
8:15 PM 69.8 °F 62.6 °F 78% 29.96 in 10.0 mi South 9.2 mph - N/A   Clear
8:35 PM 68.0 °F 62.6 °F 83% 29.97 in 10.0 mi South 8.1 mph - N/A   Mostly Cloudy
8:55 PM 68.0 °F 62.6 °F 83% 29.97 in 10.0 mi South 8.1 mph - N/A   Scattered Clouds
9:15 PM 66.2 °F 62.6 °F 88% 29.98 in 10.0 mi South 9.2 mph - N/A   Clear
9:35 PM 66.2 °F 60.8 °F 83% 29.99 in 10.0 mi SSW 10.4 mph - N/A   Clear
9:55 PM 66.2 °F 60.8 °F 83% 29.99 in 10.0 mi South 9.2 mph - N/A   Scattered Clouds
10:15 PM 64.4 °F 60.8 °F 88% 30.00 in 10.0 mi South 8.1 mph - N/A   Partly Cloudy
10:35 PM 64.4 °F 60.8 °F 88% 30.00 in 10.0 mi South 10.4 mph - N/A   Clear
10:55 PM 64.4 °F 60.8 °F 88% 30.00 in 10.0 mi South 9.2 mph - N/A   Clear
11:15 PM 64.4 °F 60.8 °F 88% 30.00 in 10.0 mi South 10.4 mph - N/A   Clear
11:35 PM 64.4 °F 60.8 °F 88% 30.01 in 10.0 mi SSW 6.9 mph - N/A   Partly Cloudy
11:55 PM 64.4 °F 60.8 °F 88% 30.01 in 10.0 mi SSW 10.4 mph - N/A   Scattered Clouds